User: anonymous   Login
Location: Slanting_Bridge
(35.6330°N, 80.9830°W)
Time: 21:57:56
(UTC-04:00)
Language:

Hamsat - Orbit

View from above orbital plane
View from above orbital plane
View from above satellite
View from above satellite

Ground track
Ground track

The orbit data is extracted from the following two-line orbital elements,

1 28650U 05017B   16240.93473661 +.00000451 +00000-0 +54196-4 0  9995
2 28650 097.6144 219.9409 0024389 025.3069 334.9337 14.88372262612474
Epoch (UTC): 27 August 2016 22:26:01
Eccentricity: 0.0024389
inclination: 97.6144°
perigee height: 586 km
apogee height: 620 km
right ascension of ascending node: 219.9409°
argument of perigee: 25.3069°
revolutions per day: 14.88372262
mean anomaly at epoch: 334.9337°
orbit number at epoch: 61247

The dashed part of the orbit path shows where the satellite is in the earth's shadow,  

DLR